Estación meteorológica de Calldetenes (Osona, Plana de Vic)

Consulta los datos en tiempo real de la estación meteorológica de Calldetenes





Hora UTC 14:15
Temperatura 37.3 ºC
Suelo 15 cm 34.7 ºC
Humedad 25.6 %
Presión 1019.8 hPa
Pluja 0.0 mm
Velocidad viento 3.6 km/h
Dirección viento W
Radiación solar 638.5 W/m²

Webcam

Datos diarios 2026-09-04



Hora UTC (invierno +1h; verano +2h)
Temperatura (ºC) Humedad (%) Presión (hPa) Velocidad viento (km/h) Precipitación (mm) Radiación solar (W/m²)
Hora UTC Aire Suelo 15 cm Humedad Presión Vel. Dir. Vel. Max Dir. Intent. máx 5 min. Rad. Sol.
00:05 19.5 19.4 87.4 1023.7 3.6 SE 3.6 SE 0.0 0.1
00:10 19.4 19.4 87.2 1023.7 3.9 ESE 5.3 SE 0.0 0.1
00:15 19.3 19.4 87.6 1023.7 3.6 ESE 5.3 ESE 0.0 0.1
00:20 19.3 19.3 87.6 1023.7 2.8 SE 5.3 ESE 0.0 0.1
00:25 19.1 19.2 87.3 1023.6 1.8 ESE 3.5 ESE 0.0 0.1
00:30 19.0 19.1 89.1 1023.6 3.8 ESE 5.6 ESE 0.0 0.1
00:35 19.1 19.0 89.6 1023.6 2.3 ESE 4.6 ESE 0.0 0.1
00:40 19.0 19.1 88.8 1023.6 2.1 ESE 4.6 ESE 0.0 0.1
00:45 18.9 19.0 88.5 1023.5 3.1 ESE 4.9 ESE 0.0 0.1
00:50 18.9 18.9 88.6 1023.5 2.8 ESE 4.6 ESE 0.0 0.1
00:55 18.8 18.8 89.2 1023.4 3.0 SE 4.9 ESE 0.0 0.1
01:00 18.8 18.7 89.9 1023.4 0.7 SSE 2.5 SE 0.0 0.1
01:05 18.7 18.7 90.0 1023.3 0.0 NNE 0.0 S 0.0 0.1
01:10 18.7 18.6 90.1 1023.3 0.0 NNE 0.0 SSE 0.0 0.1
01:15 18.5 18.5 89.9 1023.2 0.0 SE 2.1 SE 0.0 0.1
01:20 18.5 18.5 90.8 1023.2 1.6 SE 3.2 SE 0.0 0.1
01:25 18.5 18.5 90.5 1023.2 0.6 SSW 2.5 SSW 0.0 0.1
01:30 18.5 18.4 91.6 1023.2 1.2 SSW 2.8 S 0.0 0.1
01:35 18.6 18.3 91.8 1023.2 0.8 SW 2.8 SW 0.0 0.1
01:40 18.7 18.4 91.6 1023.2 2.3 S 3.9 SSW 0.0 0.1
01:45 18.7 18.4 90.8 1023.2 2.1 SE 3.5 ESE 0.0 0.1
01:50 18.6 18.4 90.5 1023.2 2.6 ESE 3.9 ESE 0.0 0.1
01:55 18.4 18.4 90.0 1023.1 2.6 ESE 4.6 ESE 0.0 0.1
02:00 18.4 18.3 90.9 1023.1 2.7 ESE 4.6 ESE 0.0 0.1
02:05 18.2 18.2 89.3 1023.1 1.1 SE 2.8 SE 0.0 0.1
02:10 18.1 18.0 91.0 1023.1 0.6 SE 2.1 SE 0.0 0.1
02:15 18.1 17.9 91.7 1023.0 1.8 SE 3.5 ESE 0.0 0.1
02:20 18.0 17.9 91.2 1023.0 0.8 SE 3.2 ESE 0.0 0.1
02:25 17.8 17.7 92.0 1023.0 4.5 ESE 6.7 ESE 0.0 0.1
02:30 18.0 17.7 93.2 1023.0 4.1 ESE 6.4 SE 0.0 0.1
02:35 18.0 17.8 92.7 1023.0 2.3 ESE 4.9 ESE 0.0 0.1
02:40 18.0 17.8 92.8 1023.0 3.9 ESE 5.6 ESE 0.0 0.1
02:45 18.1 17.8 93.2 1022.9 1.7 SE 3.9 ESE 0.0 0.1
02:50 18.0 17.8 92.2 1022.9 0.0 SSE 1.1 SSE 0.0 0.1
02:55 17.7 17.8 92.4 1022.9 0.0 SSE 1.1 SSE 0.0 0.1
03:00 17.7 17.6 92.6 1022.9 0.0 NNE 0.0 SSE 0.0 0.1
03:05 17.6 17.5 93.3 1022.9 0.4 ESE 3.9 ESE 0.0 0.1
03:10 17.6 17.5 93.2 1022.9 1.7 ESE 3.9 ESE 0.0 0.1
03:15 17.5 17.5 92.7 1022.9 0.3 SE 1.8 S 0.0 0.1
03:20 17.5 17.4 93.2 1022.9 1.1 SE 2.1 SE 0.0 0.1
03:25 17.5 17.3 93.9 1022.8 1.6 SE 3.9 ESE 0.0 0.1
03:30 17.6 17.3 94.4 1022.8 1.5 SSE 3.2 SSE 0.0 0.1
03:35 17.5 17.3 94.2 1022.8 1.0 SSE 2.1 S 0.0 0.1
03:40 17.5 17.3 94.2 1022.8 0.8 SE 2.8 SE 0.0 0.1
03:45 17.4 17.3 93.7 1022.7 2.0 SSE 3.5 SE 0.0 0.1
03:50 17.3 17.2 93.6 1022.7 3.4 ESE 5.6 ESE 0.0 0.1
03:55 17.1 17.0 93.6 1022.6 4.0 SE 5.3 ESE 0.0 0.1
04:00 16.9 16.9 93.2 1022.6 0.7 SSE 3.2 SE 0.0 0.1
04:05 16.9 16.7 94.3 1022.6 0.8 SE 2.1 SSE 0.0 0.1
04:10 16.9 16.7 94.5 1022.6 0.3 SSE 2.1 SSE 0.0 0.1
04:15 16.7 16.6 94.0 1022.5 0.4 ESE 2.1 E 0.0 0.1
04:20 16.6 16.6 94.1 1022.5 1.2 SE 2.5 ESE 0.0 0.1
04:25 16.5 16.5 93.8 1022.5 0.2 ESE 2.1 ESE 0.0 0.1
04:30 16.5 16.4 94.7 1022.5 2.8 ESE 5.6 ESE 0.0 0.1
04:35 16.6 16.4 95.3 1022.5 4.6 ESE 6.4 ESE 0.0 0.1
04:40 16.7 16.5 95.4 1022.5 3.8 ESE 5.3 ESE 0.0 0.1
04:45 16.8 16.5 95.5 1022.5 4.1 ESE 6.0 ESE 0.0 0.1
04:50 16.8 16.6 95.5 1022.5 5.4 ESE 6.7 ESE 0.0 0.1
04:55 16.4 16.5 94.2 1022.4 1.0 SE 4.6 SE 0.0 0.1
05:00 16.4 16.4 95.4 1022.4 0.5 SE 2.1 ESE 0.0 0.2
05:05 16.3 16.3 95.1 1022.3 0.5 NW 2.1 WSW 0.0 0.4
05:10 16.4 16.2 95.5 1022.3 0.4 W 1.8 W 0.0 0.9
05:15 16.5 16.3 95.9 1022.4 0.9 SSW 2.1 SSW 0.0 1.7
05:20 16.7 16.4 96.7 1022.4 2.7 SSW 4.6 SW 0.0 3.0
05:25 16.8 16.5 95.9 1022.3 1.5 SSW 3.2 S 0.0 4.9
05:30 16.5 16.4 95.2 1022.3 0.9 SSW 2.8 S 0.0 6.6
05:35 16.4 16.2 95.6 1022.3 0.5 SSW 2.5 S 0.0 9.0
05:40 16.7 16.3 96.2 1022.3 2.4 S 3.5 SSW 0.0 11.7
05:45 16.6 16.3 95.9 1022.3 2.5 S 3.9 S 0.0 14.5
05:50 16.7 16.3 96.1 1022.3 2.4 S 3.5 S 0.0 17.2
05:55 16.6 16.4 95.5 1022.3 1.5 SSE 3.9 SSE 0.0 19.6
06:00 16.5 16.4 95.5 1022.3 1.9 ESE 3.2 ESE 0.0 21.8
06:05 16.6 16.4 95.7 1022.4 2.7 ESE 4.6 E 0.0 24.5
06:10 16.9 16.6 96.7 1022.4 3.8 ESE 5.6 E 0.0 27.4
06:15 17.2 16.8 96.8 1022.5 2.2 ESE 4.6 ESE 0.0 30.2
06:20 17.2 16.9 96.6 1022.5 1.6 ESE 2.8 E 0.0 33.4
06:25 17.2 16.8 96.5 1022.5 2.1 E 4.2 E 0.0 91.0
06:30 17.4 16.9 96.7 1022.5 1.7 E 3.5 E 0.0 119.7
06:35 17.6 17.0 96.9 1022.5 0.6 ENE 2.5 E 0.0 134.3
06:40 17.8 17.2 96.8 1022.5 1.5 ENE 2.1 ENE 0.0 145.4
06:45 18.0 17.3 96.7 1022.4 1.4 NE 2.5 NE 0.0 155.6
06:50 18.0 17.4 95.3 1022.4 1.6 NNE 3.9 NNE 0.0 169.0
06:55 18.1 17.5 92.9 1022.4 2.3 NNE 4.2 NNE 0.0 183.3
07:00 18.5 17.6 90.1 1022.4 3.6 NNE 6.0 N 0.0 197.7
07:05 18.9 17.7 87.6 1022.4 2.8 NNW 4.6 NW 0.0 212.4
07:10 19.2 17.8 86.3 1022.4 2.7 N 5.6 NNE 0.0 227.0
07:15 19.4 18.0 84.9 1022.4 3.2 NNW 5.3 N 0.0 241.9
07:20 19.5 18.1 84.3 1022.4 3.8 NW 5.6 NW 0.0 256.3
07:25 19.6 18.1 83.3 1022.4 1.3 WNW 4.9 WNW 0.0 271.7
07:30 19.7 18.2 83.3 1022.4 1.7 N 5.3 NNE 0.0 286.4
07:35 19.9 18.3 83.0 1022.4 2.8 NE 4.6 NNE 0.0 301.2
07:40 20.1 18.4 82.3 1022.4 2.5 NNE 4.6 NNE 0.0 316.2
07:45 20.2 18.6 81.6 1022.3 2.1 NE 4.2 ENE 0.0 332.0
07:50 20.4 18.7 80.5 1022.3 0.4 ESE 2.5 ENE 0.0 346.8
07:55 20.7 18.8 79.6 1022.3 1.8 NE 4.9 NNE 0.0 362.6
08:00 20.8 18.9 79.8 1022.3 1.8 N 4.2 NNE 0.0 377.5
08:05 20.9 19.0 78.5 1022.2 1.9 N 5.3 NE 0.0 391.8
08:10 21.1 19.1 76.7 1022.2 1.2 E 2.8 N 0.0 406.8
08:15 21.3 19.2 75.9 1022.2 1.6 N 4.6 NNE 0.0 420.6
08:20 21.5 19.3 75.7 1022.2 2.0 NNW 4.6 NW 0.0 435.0
08:25 21.7 19.4 74.0 1022.2 1.1 SSW 3.5 S 0.0 448.4
08:30 21.9 19.6 73.1 1022.2 1.7 WNW 4.6 NW 0.0 462.1
08:35 22.1 19.7 72.7 1022.2 2.2 WSW 4.6 WNW 0.0 475.8
08:40 22.3 19.8 71.7 1022.2 0.4 S 3.9 SE 0.0 489.2
08:45 22.8 20.0 69.8 1022.2 3.1 SSE 4.9 SSE 0.0 503.0
08:50 23.3 20.3 67.6 1022.2 2.0 S 4.6 S 0.0 516.1
08:55 23.5 20.6 68.1 1022.2 2.8 NW 5.6 NNW 0.0 528.7
09:00 23.5 20.7 68.3 1022.2 2.4 NNW 4.6 NW 0.0 540.7
09:05 23.6 20.8 68.2 1022.2 1.9 NNW 4.9 NW 0.0 552.3
09:10 23.7 20.9 67.5 1022.2 1.7 N 6.0 NNW 0.0 564.3
09:15 23.9 21.0 67.2 1022.2 1.4 ESE 3.5 E 0.0 576.7
09:20 24.2 21.2 66.8 1022.2 1.6 N 3.9 N 0.0 588.0
09:25 24.6 21.4 65.2 1022.1 2.1 NNW 4.2 NNE 0.0 599.6
09:30 24.9 21.6 64.2 1022.1 1.7 E 4.2 ESE 0.0 610.4
09:35 25.4 21.9 62.2 1022.1 0.4 WSW 2.8 NNE 0.0 621.4
09:40 26.6 22.3 59.0 1022.1 2.0 NNE 4.2 NNE 0.0 631.3
09:45 27.2 22.9 57.3 1022.0 2.1 NNW 6.7 NE 0.0 640.2
09:50 28.6 23.6 52.9 1022.0 3.8 NW 6.7 NNE 0.0 649.6
09:55 29.2 24.2 51.1 1022.0 1.9 NNW 5.3 N 0.0 659.3
10:00 29.6 24.9 50.5 1022.0 4.2 N 8.1 NNW 0.0 668.7
10:05 29.6 25.8 50.3 1021.8 4.3 N 7.1 NNE 0.0 677.7
10:10 30.3 26.9 47.2 1021.8 2.0 NNW 8.5 NNW 0.0 686.7
10:15 31.1 27.7 46.2 1021.7 3.4 NNE 8.8 N 0.0 694.6
10:20 31.5 28.4 45.1 1021.7 4.0 ENE 6.4 NE 0.0 703.5
10:25 31.5 29.0 44.0 1021.6 3.5 NNW 7.1 NW 0.0 711.7
10:30 32.0 29.7 44.3 1021.6 2.8 NE 7.8 NE 0.0 719.2
10:35 32.6 30.2 40.8 1021.5 3.6 NE 7.8 ENE 0.0 726.5
10:40 32.3 30.5 41.5 1021.5 2.7 NW 5.6 NNE 0.0 730.8
10:45 33.3 31.2 39.7 1021.5 2.8 WNW 6.7 NNW 0.0 735.4
10:50 33.4 32.0 38.2 1021.5 6.4 N 9.9 NNE 0.0 740.6
10:55 33.0 32.6 38.3 1021.3 3.4 WNW 8.8 NNW 0.0 742.8
11:00 34.6 34.1 36.3 1021.3 2.1 S 4.6 SSW 0.0 747.1
11:05 35.0 35.8 34.9 1021.2 2.1 WSW 6.0 WSW 0.0 752.5
11:10 35.1 37.2 35.2 1021.2 2.4 WNW 5.3 WSW 0.0 755.8
11:15 36.3 38.5 31.9 1021.1 3.4 W 11.6 NNW 0.0 761.5
11:20 34.8 39.3 34.6 1021.1 6.8 NNW 9.9 NNW 0.0 762.8
11:25 33.8 39.1 36.0 1021.0 6.3 NNE 11.3 N 0.0 768.3
11:30 34.1 39.1 34.8 1021.0 4.7 NE 8.5 NNW 0.0 769.6
11:35 34.1 39.5 33.5 1020.9 7.0 N 12.7 NNW 0.0 774.9
11:40 34.4 39.8 30.2 1020.9 10.7 NW 22.6 NW 0.0 779.4
11:45 34.3 40.1 30.2 1020.9 6.9 NW 20.5 WNW 0.0 779.0
11:50 34.5 40.7 30.3 1020.9 11.2 WNW 22.2 WNW 0.0 780.6
11:55 34.5 40.8 28.7 1020.8 12.1 WNW 20.8 WNW 0.0 780.4
12:00 34.3 40.7 29.3 1020.8 11.7 WNW 16.9 W 0.0 781.3
12:05 34.9 40.8 28.2 1020.8 10.5 WSW 21.2 WSW 0.0 781.5
12:10 35.4 41.3 28.4 1020.8 10.8 WNW 17.6 WSW 0.0 777.7
12:15 34.7 41.7 29.9 1020.8 9.4 NW 15.9 NW 0.0 774.2
12:20 34.5 41.9 27.4 1020.8 9.1 W 15.9 WSW 0.0 775.4
12:25 35.3 42.1 26.6 1020.7 9.3 WSW 15.2 W 0.0 773.2
12:30 35.8 42.5 26.4 1020.7 7.0 WSW 12.7 WNW 0.0 771.0
12:35 35.9 43.1 26.7 1020.6 3.7 NNE 10.2 N 0.0 767.4
12:40 36.1 43.1 26.9 1020.6 5.2 WSW 17.3 W 0.0 766.4
12:45 36.1 43.1 24.6 1020.5 7.5 SW 20.1 SSW 0.0 761.1
12:50 36.4 43.0 24.9 1020.5 6.7 S 13.8 SSE 0.0 756.1
12:55 36.1 43.3 26.2 1020.4 4.2 NNW 12.7 NW 0.0 756.5
13:00 36.2 43.4 24.9 1020.4 8.1 W 16.9 W 0.0 750.9
13:05 36.4 43.1 24.2 1020.3 8.6 WSW 18.4 SW 0.0 746.9
13:10 36.2 42.6 24.9 1020.3 9.8 SSW 16.9 SSW 0.0 739.0
13:15 36.3 41.5 25.5 1020.2 6.5 SW 14.1 WSW 0.0 740.3
13:20 36.9 40.2 23.8 1020.2 4.3 WSW 11.3 WSW 0.0 724.1
13:25 36.9 39.1 22.7 1020.2 10.5 SSW 18.0 SW 0.0 713.8
13:30 36.5 38.1 24.2 1020.2 9.1 SSW 16.9 S 0.0 400.9
13:35 36.9 37.2 24.1 1020.1 7.7 SW 16.6 WSW 0.0 73.2
13:40 36.7 36.5 25.2 1020.1 6.0 WNW 14.8 WSW 0.0 71.5
13:45 37.2 35.9 24.3 1020.0 9.3 WSW 16.2 SSW 0.0 74.5
13:50 36.9 35.6 23.9 1020.0 6.0 SW 9.5 SSW 0.0 76.6
13:55 36.8 35.3 25.4 1019.9 4.6 NNW 10.6 NNE 0.0 310.0
14:00 37.4 34.9 24.6 1019.9 3.4 SW 7.4 SW 0.0 650.6
14:05 37.6 34.8 24.7 1019.9 3.3 SW 7.1 SW 0.0 647.0
14:10 37.3 34.7 23.5 1019.9 7.6 SSW 16.9 SW 0.0 643.3
14:15 37.3 34.7 25.6 1019.8 3.6 W 9.2 S 0.0 638.5
Máxima 37.6 43.4 96.9 1023.7 12.1 WNW 22.6 NW 0.0 781.5
Mínima 16.3 16.2 22.7 1019.8
Total 0.0